AFL1214 UUEE-UWWW

Flight info

Callsign AFL1214
Flight time 1h 24m
Altitude 37000
Route KOGOM3H KOGOM L94 EKPIR M864 IBROT T784 OTKOL T787 OKSUD T778 RUBEK RUBEK2G
Aircraft B738/M-SDE2E3FGHIRWXY/LB1

Departure

Time 2026-05-04 13:01
Airport Sheremetyevo International Airport (UUEE)

Arrival

Time 2026-05-04 14:26
Airport Kurumoch International Airport (UWWW)
Time Latitude Longitude Altitude Speed Heading
2026-05-04 12:35 55.97838 37.41626 639 ft 0 kts 75°
2026-05-04 12:52 55.97836 37.41612 643 ft 4 kts 75°
2026-05-04 12:53 55.97831 37.41575 643 ft 4 kts 78°
2026-05-04 12:53 55.97831 37.41543 641 ft 4 kts 158°
2026-05-04 12:53 55.97854 37.41530 641 ft 4 kts 164°
2026-05-04 12:53 55.97859 37.41527 641 ft 0 kts 165°
2026-05-04 12:57 55.97846 37.41533 646 ft 5 kts 165°
2026-05-04 12:57 55.97791 37.41561 641 ft 12 kts 164°
2026-05-04 12:57 55.97708 37.41626 640 ft 14 kts 114°
2026-05-04 12:57 55.97716 37.41791 641 ft 13 kts 76°
2026-05-04 12:58 55.97740 37.41948 641 ft 13 kts 75°
2026-05-04 12:58 55.97736 37.42097 640 ft 13 kts 133°
2026-05-04 12:58 55.97692 37.42219 638 ft 12 kts 88°
2026-05-04 12:58 55.97715 37.42364 640 ft 12 kts 72°
2026-05-04 12:59 55.97734 37.42507 643 ft 12 kts 77°
2026-05-04 12:59 55.97753 37.42646 643 ft 11 kts 76°
2026-05-04 12:59 55.97740 37.42778 640 ft 11 kts 130°
2026-05-04 12:59 55.97671 37.42827 637 ft 11 kts 166°
2026-05-04 13:00 55.97604 37.42796 638 ft 11 kts 227°
2026-05-04 13:00 55.97579 37.42676 639 ft 10 kts 255°
2026-05-04 13:00 55.97559 37.42537 640 ft 26 kts 255°
2026-05-04 13:00 55.97432 37.41685 637 ft 113 kts 255°
2026-05-04 13:01 55.97158 37.39922 780 ft 172 kts 253°
2026-05-04 13:01 55.96783 37.37694 1405 ft 202 kts 256°
2026-05-04 13:01 55.96410 37.35305 2557 ft 191 kts 256°
2026-05-04 13:01 55.96106 37.33325 3274 ft 147 kts 257°
2026-05-04 13:02 55.95814 37.31394 3199 ft 187 kts 256°
2026-05-04 13:02 55.95440 37.28961 3422 ft 217 kts 257°
2026-05-04 13:02 55.95016 37.26203 3749 ft 243 kts 256°
2026-05-04 13:02 55.94551 37.23220 4497 ft 252 kts 256°
2026-05-04 13:03 55.94079 37.20211 5341 ft 258 kts 256°
2026-05-04 13:03 55.93589 37.17100 6365 ft 257 kts 256°
2026-05-04 13:03 55.93109 37.14066 7213 ft 259 kts 256°
2026-05-04 13:03 55.92615 37.10951 8051 ft 262 kts 256°
2026-05-04 13:04 55.92115 37.07809 8918 ft 265 kts 256°
2026-05-04 13:04 55.91668 37.04597 9588 ft 267 kts 266°
2026-05-04 13:04 55.91921 37.01370 9952 ft 267 kts 291°
2026-05-04 13:04 55.92884 36.98526 9978 ft 271 kts 311°
2026-05-04 13:05 55.94327 36.96350 10003 ft 274 kts 321°
2026-05-04 13:05 55.95905 36.94412 10005 ft 276 kts 323°
2026-05-04 13:05 55.97528 36.92600 9983 ft 277 kts 333°
2026-05-04 13:05 55.99428 36.91920 10001 ft 284 kts 358°
2026-05-04 13:06 56.01398 36.92650 10260 ft 298 kts 20°
2026-05-04 13:06 56.03215 36.94538 11044 ft 303 kts 30°
2026-05-04 13:06 56.04951 36.96624 11881 ft 305 kts 30°
2026-05-04 13:06 56.06723 36.98749 12667 ft 308 kts 30°
2026-05-04 13:07 56.08523 37.00879 13423 ft 313 kts 29°
2026-05-04 13:07 56.10353 37.03044 13808 ft 317 kts 32°
2026-05-04 13:07 56.11872 37.05913 13810 ft 324 kts 58°
2026-05-04 13:07 56.12679 37.09778 13922 ft 340 kts 74°
2026-05-04 13:08 56.13252 37.13998 14339 ft 353 kts 75°
2026-05-04 13:08 56.13832 37.18307 14835 ft 358 kts 75°
2026-05-04 13:08 56.14434 37.22664 14855 ft 360 kts 74°
2026-05-04 13:08 56.14873 37.27008 14858 ft 358 kts 89°
2026-05-04 13:09 56.14426 37.31364 14891 ft 358 kts 113°
2026-05-04 13:09 56.13103 37.35149 14995 ft 360 kts 135°
2026-05-04 13:09 56.11157 37.37952 15654 ft 357 kts 154°
2026-05-04 13:09 56.08929 37.39920 16508 ft 355 kts 158°
2026-05-04 13:10 56.06675 37.41749 17202 ft 358 kts 159°
2026-05-04 13:10 56.04392 37.43586 17848 ft 363 kts 158°
2026-05-04 13:10 56.02092 37.45474 18481 ft 366 kts 158°
2026-05-04 13:10 55.99752 37.47423 19096 ft 369 kts 158°
2026-05-04 13:11 55.97446 37.49356 19685 ft 372 kts 157°
2026-05-04 13:11 55.95249 37.51958 19820 ft 379 kts 135°
2026-05-04 13:11 55.93783 37.55853 19959 ft 385 kts 114°
2026-05-04 13:11 55.93070 37.60481 20419 ft 391 kts 101°
2026-05-04 13:12 55.92596 37.65228 21112 ft 390 kts 100°
2026-05-04 13:12 55.92111 37.69973 21750 ft 391 kts 101°
2026-05-04 13:12 55.91510 37.74738 22340 ft 394 kts 111°
2026-05-04 13:12 55.90272 37.79101 22862 ft 396 kts 121°
2026-05-04 13:13 55.88894 37.83345 23415 ft 399 kts 121°
2026-05-04 13:13 55.87486 37.87683 23868 ft 403 kts 121°
2026-05-04 13:13 55.86100 37.92015 24327 ft 405 kts 120°
2026-05-04 13:13 55.84714 37.96400 24804 ft 407 kts 120°
2026-05-04 13:14 55.83330 38.00811 25258 ft 410 kts 120°
2026-05-04 13:14 55.81943 38.05227 25693 ft 412 kts 120°
2026-05-04 13:14 55.80546 38.09716 26128 ft 415 kts 116°
2026-05-04 13:14 55.79658 38.14546 26465 ft 419 kts 97°
2026-05-04 13:15 55.79566 38.18018 26502 ft 425 kts 86°
2026-05-04 13:15 55.79800 38.25116 26634 ft 438 kts 85°
2026-05-04 13:15 55.79919 38.28760 26699 ft 445 kts 85°
2026-05-04 13:15 55.80066 38.34323 26760 ft 456 kts 86°
2026-05-04 13:16 55.80204 38.40022 26821 ft 465 kts 84°
2026-05-04 13:16 55.80816 38.45642 26884 ft 469 kts 70°
2026-05-04 13:16 55.81879 38.51156 27157 ft 471 kts 68°
2026-05-04 13:16 55.82976 38.56660 27509 ft 472 kts 69°
2026-05-04 13:17 55.84034 38.62233 27863 ft 474 kts 70°
2026-05-04 13:17 55.85036 38.67781 28164 ft 476 kts 70°
2026-05-04 13:17 55.86073 38.73417 28458 ft 476 kts 67°
2026-05-04 13:17 55.87382 38.78799 28792 ft 475 kts 62°
2026-05-04 13:18 55.88841 38.84026 29249 ft 473 kts 60°
2026-05-04 13:18 55.90334 38.89262 29768 ft 470 kts 60°
2026-05-04 13:18 55.91781 38.94459 30182 ft 468 kts 61°
2026-05-04 13:18 55.93183 38.99660 30487 ft 469 kts 62°
2026-05-04 13:19 55.94580 39.04951 30816 ft 468 kts 62°
2026-05-04 13:19 55.95943 39.10228 31184 ft 467 kts 64°
2026-05-04 13:19 55.96782 39.15815 31501 ft 474 kts 81°
2026-05-04 13:19 55.97065 39.21668 31956 ft 471 kts 82°
2026-05-04 13:20 55.97307 39.27489 32500 ft 465 kts 82°
2026-05-04 13:20 55.97558 39.33172 32831 ft 464 kts 81°
2026-05-04 13:20 55.97840 39.38940 33053 ft 466 kts 81°
2026-05-04 13:20 55.98140 39.44700 33300 ft 466 kts 80°
2026-05-04 13:21 55.98449 39.50483 33654 ft 465 kts 80°
2026-05-04 13:21 55.98752 39.56180 33986 ft 463 kts 80°
2026-05-04 13:21 55.99050 39.61907 34208 ft 464 kts 80°
2026-05-04 13:21 55.99555 39.67560 34248 ft 461 kts 67°
2026-05-04 13:22 56.00897 39.72730 34424 ft 453 kts 57°
2026-05-04 13:22 56.02206 39.77863 34687 ft 458 kts 67°
2026-05-04 13:22 56.02982 39.83376 34870 ft 465 kts 78°
2026-05-04 13:22 56.03214 39.89249 35038 ft 470 kts 85°
2026-05-04 13:23 56.03263 39.95114 35237 ft 471 kts 86°
2026-05-04 13:23 56.03290 40.00932 35441 ft 471 kts 86°
2026-05-04 13:23 56.03323 40.06757 35684 ft 470 kts 86°
2026-05-04 13:23 56.03370 40.12573 35944 ft 469 kts 86°
2026-05-04 13:24 56.03430 40.18394 36124 ft 469 kts 85°
2026-05-04 13:24 56.03497 40.24246 36281 ft 470 kts 85°
2026-05-04 13:24 56.03567 40.30161 36466 ft 471 kts 86°
2026-05-04 13:25 56.03699 40.41850 36813 ft 472 kts 86°
2026-05-04 13:25 56.03760 40.47726 36852 ft 475 kts 86°
2026-05-04 13:25 56.03870 40.59494 36845 ft 474 kts 86°
2026-05-04 13:26 56.03971 40.71224 36840 ft 470 kts 86°
2026-05-04 13:26 56.04055 40.82883 36853 ft 468 kts 86°
2026-05-04 13:27 56.04123 40.94504 36852 ft 466 kts 86°
2026-05-04 13:27 56.04182 41.06069 36847 ft 465 kts 87°
2026-05-04 13:28 56.04231 41.17617 36845 ft 466 kts 87°
2026-05-04 13:28 56.04269 41.29239 36850 ft 468 kts 86°
2026-05-04 13:29 56.04297 41.40895 36851 ft 471 kts 87°
2026-05-04 13:29 56.04314 41.52667 36852 ft 473 kts 87°
2026-05-04 13:30 56.04319 41.64410 36846 ft 475 kts 87°
2026-05-04 13:30 56.04313 41.76234 36846 ft 476 kts 87°
2026-05-04 13:31 56.04296 41.88086 36841 ft 476 kts 87°
2026-05-04 13:31 56.04267 41.99911 36842 ft 475 kts 88°
2026-05-04 13:32 56.04228 42.11722 36844 ft 475 kts 87°
2026-05-04 13:32 56.04178 42.23537 36841 ft 474 kts 88°
2026-05-04 13:33 56.04118 42.35293 36838 ft 473 kts 88°
2026-05-04 13:33 56.03962 42.47044 36830 ft 475 kts 95°
2026-05-04 13:34 56.03287 42.52807 36848 ft 477 kts 106°
2026-05-04 13:34 56.02053 42.58340 36850 ft 479 kts 116°
2026-05-04 13:34 55.98375 42.68279 36849 ft 480 kts 124°
2026-05-04 13:35 55.92547 42.82828 36853 ft 480 kts 124°
2026-05-04 13:36 55.88711 42.92598 36855 ft 481 kts 124°
2026-05-04 13:36 55.84880 43.02367 36854 ft 481 kts 124°
2026-05-04 13:37 55.81055 43.12071 36855 ft 482 kts 124°
2026-05-04 13:37 55.77401 43.22052 36858 ft 481 kts 118°
2026-05-04 13:38 55.74136 43.32450 36860 ft 481 kts 117°
2026-05-04 13:38 55.70875 43.42813 36851 ft 481 kts 118°
2026-05-04 13:39 55.67568 43.53063 36855 ft 481 kts 118°
2026-05-04 13:39 55.64224 43.63337 36853 ft 481 kts 119°
2026-05-04 13:40 55.60979 43.73686 36844 ft 480 kts 111°
2026-05-04 13:40 55.59212 43.84958 36852 ft 475 kts 95°
2026-05-04 13:41 55.58926 43.96585 36866 ft 473 kts 89°
2026-05-04 13:41 55.58769 44.08221 36865 ft 473 kts 89°
2026-05-04 13:42 55.58428 44.25671 36860 ft 474 kts 90°
2026-05-04 13:42 55.58163 44.37245 36860 ft 473 kts 90°
2026-05-04 13:43 55.57886 44.48911 36869 ft 474 kts 90°
2026-05-04 13:43 55.57600 44.60555 36868 ft 474 kts 90°
2026-05-04 13:44 55.57311 44.71933 36854 ft 457 kts 90°
2026-05-04 13:44 55.56770 44.83221 36854 ft 468 kts 104°
2026-05-04 13:45 55.55544 44.88558 36892 ft 472 kts 120°
2026-05-04 13:45 55.53580 44.93224 36869 ft 476 kts 136°
2026-05-04 13:45 55.48643 45.01140 36882 ft 483 kts 139°
2026-05-04 13:46 55.43622 45.09106 36876 ft 486 kts 138°
2026-05-04 13:46 55.38663 45.17088 36876 ft 486 kts 138°
2026-05-04 13:47 55.33688 45.25139 36884 ft 485 kts 138°
2026-05-04 13:47 55.28717 45.33166 36882 ft 484 kts 138°
2026-05-04 13:48 55.23745 45.41158 36884 ft 483 kts 138°
2026-05-04 13:48 55.18788 45.49093 36889 ft 482 kts 138°
2026-05-04 13:49 55.13867 45.56943 36894 ft 481 kts 138°
2026-05-04 13:49 55.08913 45.64817 36896 ft 480 kts 139°
2026-05-04 13:50 55.03973 45.72643 36893 ft 479 kts 139°
2026-05-04 13:50 54.99027 45.80450 36904 ft 479 kts 139°
2026-05-04 13:51 54.94111 45.88184 36906 ft 479 kts 139°
2026-05-04 13:51 54.89164 45.95940 36908 ft 479 kts 139°
2026-05-04 13:52 54.81719 46.07568 36914 ft 480 kts 139°
2026-05-04 13:53 54.76759 46.15085 36882 ft 461 kts 142°
2026-05-04 13:53 54.71735 46.21997 36920 ft 465 kts 143°
2026-05-04 13:54 54.64017 46.32469 36919 ft 477 kts 143°
2026-05-04 13:55 54.56138 46.43250 36910 ft 484 kts 143°
2026-05-04 13:55 54.48229 46.54040 36909 ft 486 kts 143°
2026-05-04 13:56 54.42914 46.61255 36912 ft 485 kts 143°
2026-05-04 13:57 54.34968 46.71997 36907 ft 483 kts 143°
2026-05-04 13:58 54.24969 46.87311 35613 ft 486 kts 125°
2026-05-04 13:58 54.21841 46.97541 34249 ft 487 kts 110°
2026-05-04 13:58 54.20623 47.02968 33458 ft 489 kts 109°
2026-05-04 13:59 54.19418 47.08400 32706 ft 490 kts 109°
2026-05-04 13:59 54.18217 47.13777 31956 ft 490 kts 109°
2026-05-04 13:59 54.15749 47.24608 30445 ft 490 kts 109°
2026-05-04 14:00 54.14498 47.30013 29603 ft 490 kts 108°
2026-05-04 14:00 54.12408 47.38986 28369 ft 485 kts 109°
2026-05-04 14:00 54.11157 47.44308 27728 ft 479 kts 109°
2026-05-04 14:01 54.09923 47.49543 27156 ft 473 kts 109°
2026-05-04 14:01 54.08306 47.56395 26365 ft 467 kts 109°
2026-05-04 14:01 54.06305 47.64860 25410 ft 459 kts 109°
2026-05-04 14:02 54.05117 47.69873 24844 ft 455 kts 109°
2026-05-04 14:02 54.03937 47.74844 24284 ft 451 kts 109°
2026-05-04 14:02 54.02761 47.79784 23725 ft 447 kts 109°
2026-05-04 14:02 54.01595 47.84671 23087 ft 444 kts 109°
2026-05-04 14:03 54.00438 47.89510 22473 ft 440 kts 109°
2026-05-04 14:03 53.99286 47.94318 21903 ft 435 kts 109°
2026-05-04 14:03 53.98146 47.99063 21355 ft 431 kts 109°
2026-05-04 14:03 53.97028 48.03706 20794 ft 427 kts 110°
2026-05-04 14:04 53.94791 48.12970 19710 ft 420 kts 110°
2026-05-04 14:04 53.93683 48.17543 19168 ft 416 kts 110°
2026-05-04 14:04 53.92581 48.22085 18633 ft 413 kts 110°
2026-05-04 14:05 53.90401 48.31036 17490 ft 408 kts 110°
2026-05-04 14:05 53.89321 48.35461 16926 ft 404 kts 110°
2026-05-04 14:05 53.88248 48.39845 16383 ft 400 kts 110°
2026-05-04 14:06 53.87196 48.44131 15865 ft 396 kts 110°
2026-05-04 14:06 53.86140 48.48429 15359 ft 393 kts 110°
2026-05-04 14:06 53.85094 48.52680 14851 ft 389 kts 110°
2026-05-04 14:06 53.84055 48.56894 14349 ft 386 kts 111°
2026-05-04 14:07 53.83022 48.61076 13844 ft 382 kts 111°
2026-05-04 14:07 53.81999 48.65206 13295 ft 379 kts 111°
2026-05-04 14:07 53.80982 48.69306 12763 ft 376 kts 111°
2026-05-04 14:07 53.79975 48.73360 12267 ft 372 kts 111°
2026-05-04 14:08 53.78977 48.77375 11751 ft 368 kts 111°
2026-05-04 14:08 53.77986 48.81350 11259 ft 365 kts 111°
2026-05-04 14:08 53.77002 48.85285 10895 ft 359 kts 111°
2026-05-04 14:08 53.75926 48.89006 10753 ft 347 kts 118°
2026-05-04 14:09 53.73390 48.95581 10496 ft 326 kts 122°
2026-05-04 14:09 53.72135 48.98707 10360 ft 316 kts 121°
2026-05-04 14:10 53.69770 49.04702 10111 ft 298 kts 121°
2026-05-04 14:10 53.68651 49.07581 9980 ft 290 kts 120°
2026-05-04 14:10 53.67563 49.10394 9804 ft 285 kts 120°
2026-05-04 14:10 53.66486 49.13188 9507 ft 283 kts 120°
2026-05-04 14:11 53.65417 49.15963 9230 ft 281 kts 120°
2026-05-04 14:11 53.63292 49.21473 8674 ft 279 kts 120°
2026-05-04 14:11 53.62237 49.24207 8398 ft 278 kts 121°
2026-05-04 14:12 53.61186 49.26928 8114 ft 276 kts 121°
2026-05-04 14:12 53.60140 49.29634 7841 ft 275 kts 121°
2026-05-04 14:12 53.58078 49.34956 7322 ft 272 kts 121°
2026-05-04 14:13 53.57043 49.37622 7066 ft 271 kts 120°
2026-05-04 14:13 53.56014 49.40268 6891 ft 268 kts 120°
2026-05-04 14:13 53.54990 49.42901 6773 ft 269 kts 120°
2026-05-04 14:13 53.53962 49.45543 6664 ft 271 kts 120°
2026-05-04 14:14 53.52925 49.48208 6550 ft 274 kts 120°
2026-05-04 14:14 53.50842 49.53550 6324 ft 276 kts 120°
2026-05-04 14:14 53.49790 49.56246 6200 ft 276 kts 121°
2026-05-04 14:15 53.47680 49.61640 5963 ft 276 kts 121°
2026-05-04 14:15 53.45589 49.66975 5718 ft 270 kts 121°
2026-05-04 14:16 53.43547 49.72175 5520 ft 267 kts 121°
2026-05-04 14:16 53.42523 49.74781 5407 ft 268 kts 121°
2026-05-04 14:17 53.40470 49.79996 5192 ft 267 kts 122°
2026-05-04 14:17 53.39445 49.82596 5081 ft 267 kts 122°
2026-05-04 14:17 53.37402 49.87764 4910 ft 259 kts 122°
2026-05-04 14:18 53.36431 49.90214 4823 ft 245 kts 122°
2026-05-04 14:18 53.35297 49.95120 4630 ft 215 kts 99°
2026-05-04 14:19 53.34709 49.99711 4404 ft 190 kts 99°
2026-05-04 14:19 53.34432 50.01807 4366 ft 182 kts 99°
2026-05-04 14:19 53.34153 50.03903 4327 ft 188 kts 100°
2026-05-04 14:19 53.33863 50.06057 4260 ft 191 kts 100°
2026-05-04 14:20 53.33569 50.08214 4184 ft 189 kts 101°
2026-05-04 14:20 53.33276 50.10368 4093 ft 191 kts 99°
2026-05-04 14:20 53.32992 50.12539 3993 ft 190 kts 94°
2026-05-04 14:21 53.33652 50.16715 3616 ft 186 kts 66°
2026-05-04 14:21 53.34087 50.18742 3426 ft 184 kts 68°
2026-05-04 14:21 53.34511 50.20725 3235 ft 182 kts 66°
2026-05-04 14:21 53.34936 50.22714 3031 ft 181 kts 66°
2026-05-04 14:22 53.35431 50.24639 2810 ft 179 kts 49°
2026-05-04 14:22 53.36444 50.25630 2627 ft 168 kts
2026-05-04 14:22 53.37597 50.25324 2560 ft 170 kts 341°
2026-05-04 14:22 53.38733 50.24697 2429 ft 172 kts 340°
2026-05-04 14:23 53.40955 50.23375 2026 ft 165 kts 339°
2026-05-04 14:23 53.42020 50.22737 1843 ft 163 kts 339°
2026-05-04 14:23 53.43085 50.22099 1674 ft 157 kts 339°
2026-05-04 14:24 53.44061 50.21515 1459 ft 142 kts 339°
2026-05-04 14:24 53.44995 50.20956 1285 ft 142 kts 340°
2026-05-04 14:24 53.45930 50.20397 1100 ft 144 kts 341°
2026-05-04 14:24 53.46879 50.19828 939 ft 145 kts 341°
2026-05-04 14:25 53.47837 50.19237 747 ft 146 kts 340°
2026-05-04 14:25 53.49748 50.18095 448 ft 139 kts 340°
2026-05-04 14:25 53.50541 50.17635 436 ft 99 kts 340°
2026-05-04 14:26 53.50899 50.17413 443 ft 19 kts 340°
2026-05-04 14:26 53.51020 50.17348 434 ft 18 kts 348°
2026-05-04 14:26 53.51137 50.17280 441 ft 17 kts 340°
2026-05-04 14:26 53.51249 50.17211 447 ft 17 kts 335°
2026-05-04 14:27 53.51357 50.17141 449 ft 16 kts 336°
2026-05-04 14:27 53.51426 50.17008 448 ft 16 kts 277°
2026-05-04 14:27 53.51383 50.16847 431 ft 15 kts 239°
2026-05-04 14:27 53.51334 50.16698 438 ft 14 kts 242°
2026-05-04 14:28 53.51287 50.16553 442 ft 14 kts 241°
2026-05-04 14:28 53.51242 50.16413 434 ft 14 kts 242°
2026-05-04 14:28 53.51194 50.16267 446 ft 15 kts 241°
2026-05-04 14:28 53.51143 50.16110 439 ft 15 kts 241°
2026-05-04 14:29 53.51148 50.15880 437 ft 0 kts 333°